Miscellaneous Local Product
Issued by NWS Hastings, NE

Home | Current Version | Previous Version | Text Only | Print | Product List | Glossary On
Versions: 1 2 3 4 5 6 7 8 9 10 11 12 13 14 15 16 17 18 19 20 21 22 23 24 25 26 27 28 29 30 31 32 33 34 35 36 37 38 39 40 41 42 43 44 45 46 47 48 49 50
000
AXUS43 KGID 261902
MISGRI

GID CWA HOURLY WEATHER ROUNDUP
NATIONAL WEATHER SERVICE HASTINGS NE
200 PM CDT MON JUN 26 2017

NOTE: "FAIR" INDICATES FEW OR NO CLOUDS BELOW 12,000 FEET WITH NO
SIGNIFICANT WEATHER AND/OR OBSTRUCTIONS TO VISIBILITY.

...SOUTH CENTRAL NEBRASKA...

CITY           SKY/WX    TMP DP  RH WIND       PRES   REMARKS
GRAND ISLAND   MOSUNNY   76  59  55 NE7       30.15F
HASTINGS       CLOUDY    74  59  59 N8        30.15F
KEARNEY        PTSUNNY   73  61  64 N12       30.15S
ORD            SUNNY     77  41  27 N14G23    30.16F
YORK           MOSUNNY   75  57  53 N3        30.14F
AURORA         CLOUDY    75  57  54 N10       30.15F
LEXINGTON      CLOUDY    69  63  81 NE8       30.18F
HOLDREGE       PTSUNNY   71  57  61 N3        30.17R
HEBRON         CLOUDY    79  59  50 S6        30.13F

...NEBRASKA PANHANDLE...

CITY           SKY/WX    TMP DP  RH WIND       PRES   REMARKS
CHADRON        SUNNY     77  37  23 S8        30.18F
ALLIANCE       SUNNY     77  37  23 SE8G17    30.20F
SCOTTSBLUFF    SUNNY     79  42  26 SE7       30.18F
SIDNEY         SUNNY     82  52  35 VRB5      30.20F

...WESTERN AND NORTH CENTRAL NEBRASKA...

CITY           SKY/WX    TMP DP  RH WIND       PRES   REMARKS
VALENTINE      SUNNY     77  36  22 NE13G23   30.21F
AINSWORTH      SUNNY     73  42  32 NE17G28   30.21F
ONEILL         SUNNY     71  44  36 E8G18     30.21F
BROKEN BOW     SUNNY     77  46  33 NE14G20   30.17F
IMPERIAL       SUNNY     83  50  31 S7        30.15F
NORTH PLATTE   SUNNY     77  56  48 E13       30.17F
MCCOOK         SUNNY     82  58  43 VRB3      30.13F

...EASTERN NEBRASKA...

CITY           SKY/WX    TMP DP  RH WIND       PRES   REMARKS
NORFOLK        MOSUNNY   73  48  41 NE14      30.18S
SO SIOUX CITY  MOSUNNY   74  49  41 N10       30.17F
TEKAMAH        PTSUNNY   74  50  42 NE12      30.16F
COLUMBUS       MOSUNNY   76  53  44 N13       30.16S
ALBION         MOSUNNY   75  47  36 NE10      30.18S
OMAHA EPPLEY   MOSUNNY   76  56  49 NE9       30.15F
OFFUTT AFB     MOSUNNY   72  57  58 E3        30.15F
MILLARD        MOSUNNY   73  57  57 CALM      30.15F
LINCOLN        CLOUDY    70  62  76 S6        30.16F
NEBRASKA CITY  CLOUDY    67  61  80 SW6       30.17S
BEATRICE       PTSUNNY   72  60  64 S6        30.15F
FALLS CITY     PTSUNNY   66  54  65 S12       30.16F

...NORTHERN KANSAS...

CITY           SKY/WX    TMP DP  RH WIND       PRES   REMARKS
GOODLAND       SUNNY     82  54  37 S6        30.17F
HILL CITY      SUNNY     81  64  56 MISG      30.14F
NORTON         MOCLDY    81  54  39 SE5       30.12
PHILLIPSBURG   MOSUNNY   82  57  42 S7        30.11F
SMITH CENTER   MOSUNNY   81  57  44 CALM      30.12F
HAYS           SUNNY     79  63  57 VRB3      30.13F
RUSSELL        SUNNY     80  61  52 NW7       30.11F
CONCORDIA      CLOUDY    79  58  48 CALM      30.12F
SALINA         MOSUNNY   84  58  40 NW8       30.11F
TOPEKA         MOSUNNY   71  55  56 E14       30.18F



USA.gov is the U.S. government's official web portal to all federal, state and local government web resources and services.